Location: Shenandoah County Park
(38.9356°N, 78.4524°W)
Time: 05:15:20
(UTC-05:00)

N. Korean satellite - Pass Details

Date: 07 December 2021
Orbit: 446 x 491 km, 97.3° (Epoch: 19 January)

Event Time Altitude Azimuth Distance (km) Brightness Sun altitude
Rises 04:38:04 0° 30° (NNE) 2,454 10.4 -30.6°
Reaches altitude 10° 04:40:38 10° 51° (NE) 1,576 9.7 -30.1°
Maximum altitude 04:42:55 17° 94° (E) 1,206 9.3 -29.6°
Drops below altitude 10° 04:45:12 10° 137° (SE) 1,571 9.7 -29.2°
Sets 04:47:45 0° 159° (SSE) 2,441 10.5 -28.7°
